Beaufort, NC

12:01 AM EDT on August 19, 2019 (GMT -0400)
Smith

Weather History for KMRH - July, 2019

Change the Weather History Date:

Wednesday, July 17, 2019

  Actual Average Record
Temperature  
Mean Temperature 86 °F -  
Max Temperature 90 °F 87 °F 97 °F (1983)
Min Temperature 82 °F 72 °F 62 °F (1954)
Cooling Degree Days 20    
Growing Degree Days 36 (Base 50)    
Moisture  
Dew Point 78 °F    
Average Humidity 78    
Maximum Humidity 85    
Minimum Humidity 70    
Precipitation  
Precipitation 0.00 in - - ()
Sea Level Pressure  
Sea Level Pressure 30.07 in    
Wind  
Wind Speed 11 mph (SW)    
Max Wind Speed 20 mph    
Max Gust Speed 26 mph    
Visibility 10 miles    
Events      
Averages and records for this station are not official NWS values.
T = Trace of Precipitation, MM = Missing Value Source: NWS Daily Summary

Daily Weather History Graph

Daily Weather History Graph

Search for Another Location

Airport or City:

Astronomy

Jul. 17, 2019 Rise Set
Actual Time 6:05 AM EDT 8:19 PM EDT
Civil Twilight 5:37 AM EDT 8:48 PM EDT
Nautical Twilight 5:01 AM EDT 9:23 PM EDT
Astronomical Twilight 4:23 AM EDT 10:01 PM EDT
Moon 9:07 PM EDT (7/17) 6:36 AM EDT (7/17)
Length of Visible Light 15h 11m
Length of Day
14h 13m
Waxing Gibbous, 99% of the Moon is Illuminated
Jul 17
Waxing Gibbous
Jul 24
Last Quarter
Jul 31
New
Aug 7
First Quarter
Aug 15
Full

Hourly Weather History & Observations

Time (EDT) Temp. Heat Index Dew Point Humidity Pressure Visibility Wind Dir Wind Speed Gust Speed Precip Events Conditions
12:58 AM 84.0 °F 93.7 °F 77.0 °F 79% 30.11 in 10.0 mi SSW 8.1 mph - N/A   Clear
1:58 AM 82.9 °F 91.8 °F 77.0 °F 82% 30.10 in 10.0 mi South 9.2 mph - N/A   Clear
2:58 AM 82.9 °F 91.8 °F 77.0 °F 82% 30.09 in 10.0 mi SSW 9.2 mph - N/A   Clear
3:58 AM 82.9 °F 91.8 °F 77.0 °F 82% 30.08 in 10.0 mi SW 6.9 mph - N/A   Clear
4:58 AM 82.9 °F 92.8 °F 78.1 °F 85% 30.08 in 10.0 mi SW 11.5 mph - N/A   Clear
5:39 AM 82.9 °F 92.8 °F 78.1 °F 85% 30.08 in 10.0 mi SW 9.2 mph - N/A   Mostly Cloudy
5:48 AM 82.9 °F 92.8 °F 78.1 °F 85% 30.09 in 10.0 mi SW 9.2 mph - N/A   Scattered Clouds
5:58 AM 82.9 °F 92.8 °F 78.1 °F 85% 30.09 in 10.0 mi SW 9.2 mph - N/A   Partly Cloudy
6:58 AM 82.9 °F 91.8 °F 77.0 °F 82% 30.10 in 10.0 mi SW 8.1 mph - N/A   Partly Cloudy
7:58 AM 84.9 °F 96.6 °F 78.1 °F 80% 30.10 in 10.0 mi SW 11.5 mph - N/A   Partly Cloudy
8:58 AM 86.0 °F 98.3 °F 78.1 °F 77% 30.11 in 10.0 mi SW 12.7 mph - N/A   Partly Cloudy
9:58 AM 87.1 °F 98.8 °F 77.0 °F 72% 30.11 in 10.0 mi WSW 9.2 mph - N/A   Clear
10:58 AM 87.1 °F 99.8 °F 78.1 °F 74% 30.11 in 10.0 mi SSW 15.0 mph - N/A   Scattered Clouds
11:58 AM 88.0 °F 101.3 °F 78.1 °F 72% 30.11 in 10.0 mi SW 13.8 mph - N/A   Clear
12:58 PM 89.1 °F 103.2 °F 78.1 °F 70% 30.09 in 10.0 mi SW 15.0 mph - N/A   Clear
1:58 PM 89.1 °F 103.2 °F 78.1 °F 70% 30.09 in 10.0 mi SW 15.0 mph - N/A   Clear
2:58 PM 89.1 °F 104.4 °F 79.0 °F 72% 30.08 in 10.0 mi SSW 16.1 mph - N/A   Partly Cloudy
3:58 PM 88.0 °F 101.3 °F 78.1 °F 72% 30.05 in 10.0 mi SSW 15.0 mph - N/A   Clear
4:58 PM 87.1 °F 99.8 °F 78.1 °F 74% 30.04 in 10.0 mi SSW 17.3 mph - N/A   Clear
5:58 PM 87.1 °F 99.8 °F 78.1 °F 74% 30.02 in 10.0 mi SSW 18.4 mph 23.0 mph N/A   Clear
6:58 PM 86.0 °F 96.9 °F 77.0 °F 74% 30.03 in 10.0 mi SSW 15.0 mph 24.2 mph N/A   Clear
7:58 PM 84.0 °F 94.8 °F 78.1 °F 82% 30.04 in 10.0 mi SW 16.1 mph - N/A   Partly Cloudy
8:58 PM 84.0 °F 93.7 °F 77.0 °F 79% 30.03 in 10.0 mi SW 17.3 mph - N/A   Clear
9:58 PM 84.0 °F 94.8 °F 78.1 °F 82% 30.03 in 10.0 mi SSW 15.0 mph - N/A   Clear
10:58 PM 84.0 °F 96.0 °F 79.0 °F 85% 30.04 in 10.0 mi SW 16.1 mph - N/A   Mostly Cloudy
11:21 PM 84.0 °F 94.8 °F 78.1 °F 82% 30.03 in 10.0 mi SW 19.6 mph 26.5 mph N/A   Scattered Clouds
11:58 PM 84.0 °F 93.7 °F 77.0 °F 79% 30.04 in 10.0 mi SW 17.3 mph 25.3 mph N/A   Scattered Clouds